Regional Weather Roundup
Issued by NWS

Home | Current Version | Previous Version | Graphics & Text | Print | Product List | Glossary On
Versions: 1 2 3 4 5 6 7 8 9 10 11 12 13 14 15 16 17 18 19 20 21 22 23 24 25 26 27 28 29 30 31 32 33 34 35 36 37 38 39 40 41 42 43 44 45 46 47 48 49 50
000
ASUS43 KLMK 261602
RWRKY
KENTUCKY REGIONAL WEATHER ROUNDUP
NATIONAL WEATHER SERVICE LOUISVILLE KY
1200 PM EDT WED APR 26 2017

NOTE "FAIR" INDICATES FEW OR NO CLOUDS BELOW 12,000 FEET
WITH NO SIGNIFICANT WEATHER AND/OR OBSTRUCTIONS TO VISIBILITY.

KYZ001>023-026-027-061>063-070>075-261700-
WESTERN AND SOUTH CENTRAL KENTUCKY

CITY           SKY/WX    TMP DP  RH WIND       PRES   REMARKS
PADUCAH        FAIR      77  62  59 S13       29.60S
HENDERSON      FAIR      76  62  62 S16       29.61S
OWENSBORO      FAIR      76  63  64 S17       29.63S
HOPKINSVILLE   NOT AVBL
BOWLING GREEN  FAIR      77  62  59 S14       29.69F
GLASGOW        NOT AVBL
$$

KYZ024-025-028>034-038-045-046-053-261700-
NORTH CENTRAL KENTUCKY

CITY           SKY/WX    TMP DP  RH WIND       PRES   REMARKS
LOUISVILLE/SDF PTSUNNY   77  61  57 S14G21    29.67S
LOUISVILLE/LOU PTSUNNY   75  62  64 S8        29.68S
FORT KNOX      CLOUDY    75  62  63 S8        29.66S
$$

KYZ035>037-039>044-047>052-055>060-089>105-261700-
NORTHEAST KENTUCKY

CITY           SKY/WX    TMP DP  RH WIND       PRES   REMARKS
LEXINGTON      FAIR      74  59  59 S14       29.74F
COVINGTON      CLOUDY    74  61  63 S12       29.69S
FRANKFORT      FAIR      76  58  53 S10       29.70F
$$

KYZ054-064>069-076>088-106>120-261700-
SOUTHEAST KENTUCKY

CITY           SKY/WX    TMP DP  RH WIND       PRES   REMARKS
JACKSON        FAIR      74  57  55 VRB5      29.81S
LONDON         FAIR      74  54  49 SW9       29.81R
SOMERSET       FAIR      72  55  56 S9        29.80S
MIDDLESBORO    FAIR      73  57  58 S6        29.83R
MONTICELLO     FAIR      75  59  57 VRB6G24   29.80S
$$





USA.gov is the U.S. government's official web portal to all federal, state and local government web resources and services.